Location: Anola
(49.8851°N, 96.6375°W)
Time: 01:15:33
(UTC-06:00)

N. Korean satellite - Visible Passes

Search period start: 22 November 2017 00:00
Search period end: 02 December 2017 00:00
Orbit: 460 x 514 km, 97.2° (Epoch: 21 November)

Date Brightness Start Highest point End Pass type
(mag) Time Alt. Az. Time Alt. Az. Time Alt. Az.
22 Nov 7.4 07:09:38 10° NNE 07:13:21 58° E 07:17:04 10° S visible
22 Nov 6.9 17:50:15 10° SE 17:53:36 42° ENE 17:57:02 10° N visible
22 Nov 9.6 19:25:04 10° SW 19:27:22 16° W 19:29:42 10° NW visible
23 Nov 8.8 06:46:23 10° NNE 06:49:47 32° E 06:53:11 10° SSE visible
23 Nov 7.6 17:27:19 10° ESE 17:30:15 24° ENE 17:33:14 10° N visible
23 Nov 8.6 19:00:34 10° SSW 19:03:41 28° W 19:06:52 10° NNW visible
24 Nov 9.8 06:23:26 10° NE 06:26:08 19° E 06:28:50 10° SE visible
24 Nov 8.2 17:04:53 10° E 17:06:58 15° ENE 17:09:04 10° NNE visible
24 Nov 7.3 18:36:36 10° S 18:40:05 53° W 18:43:39 10° NNW visible
25 Nov 10.3 06:01:30 10° ENE 06:02:24 11° E 06:03:17 10° E visible
25 Nov 6.4 18:13:00 10° SSE 18:16:33 80° ENE 18:20:13 10° N visible
26 Nov 7.4 07:09:10 10° NNE 07:12:54 58° E 07:16:37 10° S visible
26 Nov 6.9 17:49:43 10° SE 17:53:06 42° ENE 17:56:35 10° N visible
26 Nov 9.6 19:24:30 10° SW 19:26:52 17° W 19:29:16 10° NW visible
27 Nov 8.8 06:45:54 10° NNE 06:49:19 32° E 06:52:42 10° SSE visible
27 Nov 7.6 17:26:47 10° ESE 17:29:44 25° ENE 17:32:46 10° N visible
27 Nov 8.6 19:00:01 10° SSW 19:03:10 29° W 19:06:25 10° NNW visible
28 Nov 9.8 06:22:56 10° NE 06:25:38 19° E 06:28:20 10° SE visible
28 Nov 8.2 17:04:19 10° E 17:06:26 15° ENE 17:08:36 10° NNE visible
28 Nov 7.3 18:36:02 10° S 18:39:32 54° W 18:43:10 10° NNW visible
29 Nov 10.3 06:01:00 10° ENE 06:01:53 11° E 06:02:46 10° E visible
29 Nov 6.4 18:12:25 10° SSE 18:16:00 80° ENE 18:19:42 10° N visible
30 Nov 7.4 07:08:38 10° NNE 07:12:22 58° E 07:16:05 10° S visible
30 Nov 6.9 17:49:07 10° SE 17:52:33 42° ENE 17:56:04 10° N visible
30 Nov 9.6 19:23:52 10° SW 19:26:18 17° W 19:28:46 10° NW visible
01 Dec 8.8 06:45:20 10° NNE 06:48:45 31° E 06:52:08 10° SSE visible
01 Dec 7.6 17:26:10 10° ESE 17:29:10 25° ENE 17:32:13 10° N visible
01 Dec 8.6 18:59:23 10° SSW 19:02:35 29° W 19:05:52 10° NNW visible
